Theta_e
359 360 359 359 359 359 357 355 357 356 355 355 355 356 356 356 357 356 356 360 358 360 361 361 362 361 360 358 357 356 355 354 353 354 353 353 352 354 355 355 355 355 355
358 358 360 357 358 358 357 357 356 355 356 355 356 357 357 356 358 358 356 356 358 361 362 363 363 363 361 359 358 358 357 355 354 353 353 355 355 354 355 355 355 355 355
360 359 357 358 360 360 360 359 358 358 357 356 358 358 358 358 358 358 360 358 357 356 361 365 363 364 364 361 360 359 360 359 355 354 356 356 355 355 354 354 353 352 353
361 360 358 357 359 360 359 358 357 355 356 355 355 355 356 357 359 360 360 360 358 356 361 365 363 362 364 360 361 363 362 359 358 358 357 356 355 355 355 355 354 354 353
359 359 357 357 361 359 358 357 356 356 359 359 355 355 355 356 358 357 360 361 362 359 358 362 363 361 360 358 360 360 361 359 355 358 357 358 358 357 356 357 356 357 356
360 359 358 360 361 359 360 358 358 361 353 354 353 352 355 358 358 356 356 358 361 361 360 361 361 360 361 360 361 359 358 357 352 354 356 357 358 358 357 357 357 358 358
361 362 364 361 360 363 360 360 357 354 348 352 357 351 353 356 355 353 354 355 357 360 362 362 361 360 357 360 360 359 358 358 353 353 357 356 358 358 358 357 357 358 358
362 361 352 350 359 364 362 361 361 359 357 354 351 349 341 348 353 352 351 351 353 358 361 359 359 360 360 359 361 358 356 354 359 355 357 355 356 358 358 357 357 358 358
356 359 356 356 363 362 362 362 361 358 357 356 357 353 345 338 341 350 351 353 354 354 355 355 356 358 359 357 356 355 352 354 356 359 358 358 356 356 357 358 358 358 358
357 362 363 363 363 364 362 362 361 358 356 355 354 355 355 349 344 338 348 351 353 351 355 353 353 355 355 354 354 351 351 352 354 356 357 360 358 356 356 358 358 358 358
358 362 363 361 359 360 361 360 359 358 357 353 352 356 356 355 354 344 337 342 349 352 354 349 353 356 355 355 353 352 351 353 352 354 356 358 358 356 356 356 357 359 359
358 359 360 359 358 357 355 353 353 352 357 358 356 355 351 348 347 345 341 340 338 344 344 347 353 356 359 356 354 353 352 352 351 351 351 353 356 356 356 357 358 357 358
356 357 357 353 351 352 352 352 350 351 353 352 353 350 349 347 346 343 339 335 332 338 341 349 351 355 358 359 356 352 355 352 351 349 349 350 352 354 356 357 358 358 356
357 358 353 349 347 347 349 349 347 346 346 346 345 348 346 343 343 342 336 333 327 331 338 340 349 348 351 354 355 355 360 351 350 348 346 347 349 351 352 354 355 356 355
357 356 350 347 343 345 345 344 342 342 344 344 343 343 342 343 344 343 341 340 335 326 328 338 342 345 346 350 349 351 354 349 348 347 345 343 345 347 349 350 350 351 352
357 351 348 345 342 342 343 342 340 340 340 339 341 343 344 344 343 344 344 344 340 335 328 338 340 342 346 346 348 350 350 344 345 342 342 341 342 344 345 347 347 348 348
355 349 347 344 342 342 341 341 341 339 340 341 343 343 342 343 341 341 342 342 341 340 332 335 341 343 345 346 348 350 349 349 348 342 341 340 339 341 343 344 345 345 346
352 349 346 344 343 343 342 341 340 339 340 340 340 340 339 338 339 339 334 336 336 338 335 335 338 338 343 347 348 347 346 346 350 340 340 339 338 337 337 338 339 339 338
349 346 345 343 343 342 340 341 341 339 340 340 339 339 339 339 338 334 333 331 331 332 333 331 332 337 339 344 343 345 344 347 347 343 340 339 338 338 337 335 335 333 330
346 344 344 343 344 342 340 340 339 338 337 337 338 337 339 337 335 334 332 336 334 330 329 327 327 329 334 341 340 336 336 339 339 345 343 340 340 338 336 333 332 330 326
345 344 343 343 343 341 338 340 338 337 336 335 334 335 334 332 333 332 332 336 333 327 324 323 323 327 329 330 333 335 332 334 339 342 340 344 347 353 350 338 338 334 329
342 343 342 342 341 339 334 334 337 337 337 336 334 335 333 328 333 332 329 327 328 327 324 321 323 325 329 332 335 332 330 329 329 340 335 334 344 345 351 351 330 331 329
341 341 341 342 341 341 330 331 333 336 333 333 333 333 333 330 330 334 328 321 320 324 326 330 328 328 330 334 336 334 332 330 329 332 334 331 344 340 349 340 327 327 327
337 339 340 341 341 340 328 329 331 334 334 333 332 331 332 332 334 333 332 329 326 326 323 324 329 331 332 334 336 334 334 333 333 333 339 328 340 338 346 345 327 327 324
337 332 336 340 339 340 324 325 329 334 332 333 333 332 328 327 326 323 330 328 326 326 319 317 320 320 320 320 321 328 328 327 324 327 336 331 334 333 335 340 340 326 323
337 332 331 333 333 336 322 322 328 331 332 331 331 330 320 321 319 319 329 327 324 323 321 322 323 323 322 324 321 326 328 325 325 323 332 324 325 326 325 341 341 338 333
Wind_Speed
2 2 2 2 3 3 3 4 3 3 5 6 6 6 6 6 6 5 5 5 11 14 15 15 14 13 12 12 12 11 11 12 12 13 12 12 12 12 12 11 13 11 11
3 3 3 4 4 4 5 4 4 4 4 5 7 7 7 7 6 7 6 6 9 13 16 17 16 16 16 15 14 14 13 13 13 13 12 13 12 12 13 14 13 12 10
5 5 5 5 6 4 6 5 6 5 6 5 6 6 6 6 7 8 8 6 6 12 15 17 17 17 17 16 16 14 14 14 14 14 13 13 13 13 13 12 13 12 10
5 5 5 5 5 4 4 5 5 5 5 5 6 6 6 7 9 9 8 7 6 6 9 17 18 17 17 17 16 16 15 15 15 15 14 14 15 14 13 12 12 11 10
5 5 5 5 6 5 5 4 5 5 3 5 6 6 6 7 6 7 8 8 8 8 6 5 12 15 17 18 17 16 16 15 12 15 15 16 16 16 15 14 12 12 11
5 5 5 6 4 4 5 4 6 4 3 5 6 7 7 6 5 5 6 6 6 7 7 6 4 8 15 17 17 16 16 18 17 16 16 18 18 18 17 15 14 13 12
5 6 2 6 5 6 7 6 4 3 3 5 5 7 6 7 6 4 4 4 5 5 4 4 4 4 5 12 15 17 18 19 24 23 19 19 20 19 19 17 16 15 14
5 2 1 6 8 5 6 6 7 3 4 4 4 4 4 3 3 3 3 4 4 2 2 4 5 6 5 5 8 14 19 15 20 21 22 22 20 20 20 19 18 17 15
2 5 6 7 6 4 4 5 4 5 3 4 5 4 3 2 3 2 4 2 1 3 2 4 5 4 5 6 5 5 5 15 19 21 23 22 22 21 20 21 20 19 18
3 4 5 6 3 2 1 1 1 4 4 4 3 4 4 2 3 2 2 1 2 4 2 3 5 5 5 5 5 5 5 6 8 15 18 19 20 19 23 24 22 21 21
5 4 5 5 3 2 1 1 2 2 3 3 4 2 3 1 2 3 5 3 3 1 2 3 5 5 4 5 5 5 7 9 9 10 11 15 20 22 23 25 24 22 21
4 4 5 3 2 1 2 1 1 2 2 2 2 1 1 2 1 2 4 5 7 4 3 3 5 4 2 4 6 7 8 10 10 10 10 13 16 20 23 23 23 24 24
5 6 6 5 4 2 1 1 1 1 0 2 1 0 1 1 1 2 3 4 5 4 3 2 4 3 0 2 4 5 7 9 10 11 12 13 14 15 17 19 19 22 24
6 7 5 4 3 1 2 2 2 1 3 2 3 3 2 2 2 2 3 4 5 3 2 3 2 4 3 3 3 4 5 8 9 9 9 11 12 12 11 11 14 17 20
5 7 6 5 3 2 2 3 2 2 2 1 2 3 1 2 0 1 3 3 4 5 4 3 1 4 4 4 6 7 4 8 6 6 8 9 11 13 12 13 13 13 12
7 8 7 6 4 3 2 3 3 3 3 3 2 3 2 2 2 1 1 1 3 4 5 1 2 4 5 5 3 5 5 6 4 4 3 6 8 11 12 13 12 12 12
9 9 8 7 7 7 5 4 2 3 3 3 3 1 1 1 2 2 3 2 2 3 6 4 3 4 5 5 6 7 6 5 3 6 7 5 6 7 10 11 11 11 11
11 10 9 7 7 5 5 6 5 4 4 5 4 3 3 2 1 1 3 4 5 4 6 6 5 4 4 5 6 6 5 4 4 9 6 6 4 4 8 9 9 9 9
10 10 10 9 7 6 6 5 4 4 5 4 3 3 2 2 2 3 3 4 3 4 4 5 6 4 4 4 5 3 4 3 4 1 2 5 5 6 1 5 7 6 7
10 10 10 9 9 7 6 5 5 5 4 3 3 3 3 3 4 3 3 2 2 4 3 5 5 5 4 3 4 4 3 3 4 3 1 1 4 7 8 4 0 4 4
9 10 9 9 9 8 7 7 6 5 4 4 4 4 3 1 4 4 4 2 4 4 4 4 4 4 4 4 4 4 5 5 3 3 5 3 4 1 3 4 2 1 5
9 9 11 11 10 8 9 9 7 6 6 5 5 5 5 4 3 6 6 3 5 5 5 5 4 4 5 5 2 5 5 6 4 3 6 6 4 3 1 1 4 1 4
8 11 11 10 10 9 9 11 11 7 6 5 5 5 6 5 5 5 7 4 4 3 5 5 6 5 6 5 5 6 4 5 6 6 6 6 1 4 1 5 3 2 4
10 10 11 11 10 9 9 11 12 7 5 5 6 6 6 6 6 6 6 5 4 4 4 5 6 6 6 6 7 6 7 7 8 5 2 6 2 4 3 3 7 6 5
13 7 7 11 11 8 11 12 11 8 7 6 6 6 6 5 4 7 7 6 5 6 4 6 8 9 10 9 9 7 7 6 6 3 3 5 2 4 4 4 5 7 7
14 9 7 9 9 6 11 12 12 6 6 5 5 6 7 6 5 6 7 5 5 5 6 7 6 7 9 9 10 10 8 8 6 5 4 4 3 3 4 2 0 3 6
Wind_Direction
254 280 267 274 276 271 283 276 283 307 295 278 266 268 268 269 273 271 277 234 239 230 228 223 219 213 210 205 200 200 190 185 178 168 170 170 162 158 149 151 152 151 149
253 267 265 268 266 261 260 273 276 283 280 284 279 275 267 272 280 270 262 261 234 236 227 222 218 209 216 210 206 203 203 193 192 183 181 175 172 168 159 156 149 153 153
238 263 269 259 257 253 255 248 253 251 265 277 283 276 279 288 276 266 263 263 257 231 236 226 217 212 212 214 207 209 203 203 198 196 188 179 176 174 172 166 160 159 159
248 249 260 267 282 277 259 245 254 261 264 274 280 285 284 277 272 264 269 271 257 268 216 228 221 215 211 216 214 208 206 203 203 198 197 190 188 186 184 183 180 177 179
244 255 274 280 280 266 255 249 249 243 262 282 281 279 281 277 274 279 275 266 262 250 253 222 221 222 219 222 220 217 209 204 216 216 206 200 201 198 198 197 197 194 195
250 253 259 262 256 254 239 230 259 231 264 286 292 281 269 264 262 263 273 273 262 251 239 252 234 222 217 226 224 219 217 189 214 225 220 215 204 205 205 207 204 204 203
232 231 303 306 261 250 247 223 229 279 217 269 272 258 246 242 244 245 261 268 268 257 250 245 243 232 221 234 237 224 221 205 201 221 216 219 213 209 207 210 213 209 204
241 147 2 294 278 262 236 227 232 224 222 207 259 277 282 203 197 221 227 267 258 275 265 253 260 237 247 260 258 244 230 222 220 222 222 220 217 214 213 213 214 216 212
234 206 220 242 249 237 249 235 223 239 248 203 237 278 277 300 325 181 210 281 257 245 231 247 259 247 235 244 237 232 233 234 228 225 224 222 216 217 216 215 210 210 211
226 243 215 230 219 218 254 288 278 275 253 254 209 218 232 296 308 291 192 249 263 278 300 275 277 259 240 241 234 255 251 240 234 234 230 228 226 217 216 217 214 211 208
243 175 182 185 183 204 162 205 221 231 216 254 217 231 225 241 324 300 307 338 284 8 321 304 313 305 238 240 238 248 243 254 256 242 236 228 223 221 229 220 214 211 210
197 178 185 169 159 186 244 265 269 248 267 248 238 222 266 280 280 280 292 314 325 332 342 322 341 332 242 238 247 262 252 252 247 247 248 245 240 227 232 228 220 214 213
195 182 179 176 174 173 240 279 262 42 280 258 247 156 49 34 357 319 296 306 308 335 332 321 14 22 102 258 271 253 232 243 243 245 242 240 247 248 228 230 227 222 216
192 173 176 166 149 165 152 124 135 110 89 87 67 50 73 57 6 328 313 310 296 267 285 350 41 43 45 14 3 219 202 202 223 239 238 233 235 240 238 232 230 225 218
178 172 167 162 159 158 160 144 137 136 122 105 109 101 101 98 88 268 255 273 306 302 314 93 306 45 10 14 17 326 320 131 195 211 213 215 220 226 233 234 234 225 225
177 169 171 167 163 158 181 224 186 154 172 170 155 136 162 148 173 183 296 239 235 264 270 342 334 331 335 327 22 331 315 286 110 25 327 276 241 232 229 234 236 228 223
176 176 180 174 175 173 169 178 179 166 176 164 147 147 139 275 348 347 324 308 270 271 274 284 302 327 317 340 342 342 314 293 276 54 19 352 247 240 240 229 229 229 223
175 177 180 185 186 182 185 184 191 176 192 179 178 189 169 187 247 5 306 319 329 332 320 317 358 330 310 328 338 329 336 318 295 75 28 3 7 257 242 229 211 212 217
181 180 180 184 194 198 192 189 191 182 191 197 193 220 238 252 285 329 338 343 348 331 326 310 302 300 311 330 327 320 327 336 286 328 227 100 37 40 16 216 191 200 193
183 188 191 193 184 191 206 200 194 201 205 199 212 229 234 271 295 292 288 316 344 322 322 293 300 303 297 326 305 320 303 330 315 312 335 112 32 63 66 74 238 191 192
209 190 192 193 193 188 200 198 195 200 220 237 248 241 214 282 283 268 281 318 301 297 304 307 298 298 297 310 329 340 309 317 275 327 322 312 313 315 114 132 118 224 187
206 208 192 195 196 206 159 198 212 207 214 237 253 249 251 240 220 190 209 241 324 305 290 287 290 301 301 298 299 326 322 327 311 111 323 295 287 260 201 179 57 192 176
216 210 202 201 198 209 168 185 194 213 217 231 244 244 243 232 226 226 187 188 204 242 279 286 286 293 304 326 326 304 333 313 301 321 308 285 259 266 234 133 122 129 148
206 206 201 200 207 198 169 178 177 193 209 224 240 238 242 262 256 260 240 246 264 299 290 267 277 285 283 306 300 301 310 304 270 263 235 282 350 301 247 174 145 159 172
202 187 210 200 200 191 171 167 179 191 200 222 235 240 239 269 313 239 236 251 275 299 187 238 267 278 271 263 260 278 264 274 286 269 201 288 310 307 294 227 152 174 174
193 170 176 224 171 194 170 172 188 201 208 222 222 241 210 272 331 226 229 249 280 319 321 313 290 249 234 249 220 237 264 270 271 257 130 275 311 346 291 130 279 177 185